Location: Newark
(25.0000°N, 73.5000°E)
Time: 19:57:46
(UTC+00:00)

X-37B - Pass Details

Date: 19 June 2021
Orbit: 383 x 392 km, 45.0° (Epoch: 01 July)

Event Time Altitude Azimuth Distance (km) Brightness Sun altitude
Rises 23:01:31 0° 333° (NNW) 2,257 4.6 -15.5°
Reaches altitude 10° 23:05:00 10° 14° (NNE) 1,404 4.1 -14.8°
Maximum altitude 23:05:50 11° 29° (NNE) 1,361 4.4 -14.7°
Drops below altitude 10° 23:06:39 10° 44° (NE) 1,405 4.8 -14.5°
Sets 23:10:08 0° 85° (E) 2,259 5.6 -13.9°
